[[{"header":{"parameterUnit":"m.s-1","parameterCategory":1,"la1":30.2991,"la2":30.254,"lo1":-89.0895,"lo2":-89.0444,"dy":0.0017,"dx":0.0017,"nx":28,"ny":28,"refTime":"2023-09-14T21:00:00:Z","depth":0,"parameterNumber":2,"parameterNumberName":"U-component_of_WINDS"},"data":[0,0,0,0,0,0,0,0,0,0,0,0,0,0,0,0,0,0,0,0,0,0,0,0,0,0,0,0,0,0,0,0,0,0,0,0,0,0,0,0,0,0,0,0,0,0,0,0,0,0,0,0,0,0,0,0,0,0,-1.9291,-1.929,0,-1.9252,-1.9251,-1.9251,-1.9186,-1.9185,-1.9184,-1.9182,-1.9143,-1.9143,-1.9143,0,0,0,0,0,0,0,0,0,0,0,0,0,-1.931,-1.931,-1.9291,-1.929,-1.929,-1.9252,-1.9251,-1.9251,-1.9186,-1.9185,-1.9183,-1.9182,-1.9143,-1.9143,-1.9143,0,0,0,0,0,0,0,0,0,0,0,0,0,-1.929,-1.931,-1.9291,-1.9253,-1.9249,-1.9252,-1.9251,-1.925,-1.9186,-1.9185,-1.9183,-1.9181,-1.9143,-1.9143,-1.9143,-1.918,0,0,-1.9144,-1.9144,0,0,0,0,0,0,0,0,-1.9291,-1.9289,-1.9259,-1.9256,-1.9251,-1.9222,-1.9243,-1.9227,-1.9187,-1.921,-1.9182,-1.918,-1.9171,-1.9169,-1.9165,-1.9178,-1.9176,-1.9144,-1.9144,-1.9144,-1.9144,0,0,0,0,0,0,0,-1.9292,-1.929,-1.9275,-1.9259,-1.9254,-1.9238,-1.9233,-1.924,-1.9201,-1.9208,-1.9203,-1.92,-1.9168,-1.9165,-1.9164,-1.9176,-1.9144,-1.9144,-1.9144,-1.9144,-1.9216,-1.9218,0,0,0,0,0,0,-1.9299,-1.9292,-1.9276,-1.9274,-1.9267,-1.9239,-1.9234,-1.9233,-1.9201,-1.9194,-1.9201,-1.9197,-1.9166,-1.9164,-1.9162,-1.9202,-1.9144,-1.9144,-1.9144,-1.9214,-1.9216,-1.9218,0,0,0,0,0,0,-1.93,-1.9298,-1.9278,-1.9282,-1.9278,-1.9241,-1.9241,-1.9233,-1.923,-1.9196,-1.9188,-1.9205,-1.9164,-1.9162,-1.9176,-1.92,-1.9144,-1.9144,-1.9212,-1.9215,-1.9217,-1.9283,0,0,0,0,0,0,-1.9301,-1.9299,-1.9312,-1.9282,-1.9278,-1.9292,-1.9242,-1.9234,-1.923,-1.9224,-1.9197,-1.9191,-1.9163,-1.9176,-1.9176,-1.9199,-1.9144,-1.921,-1.9213,-1.9217,-1.9278,-1.9287,-1.9295,0,0,0,0,0,-1.9302,-1.9333,-1.9313,-1.9312,-1.9294,-1.9294,-1.9291,-1.9258,-1.9233,-1.9246,-1.9223,-1.9192,-1.9198,-1.9178,-1.9177,-1.9201,-1.9208,-1.9212,-1.9216,-1.9274,-1.9286,-1.9295,0,0,0,0,0,0,-1.9366,-1.9328,-1.9306,-1.9328,-1.9315,-1.9283,-1.9298,-1.9271,-1.9264,-1.9259,-1.9218,-1.9212,-1.9231,-1.9218,-1.9196,-1.9234,-1.9198,-1.9202,-1.9242,-1.9253,-1.9261,-1.9263,-1.9144,0,0,0,0,0,-1.9383,-1.9386,-1.9353,-1.9375,-1.937,-1.9336,-1.9334,-1.931,-1.9294,-1.9288,-1.9267,-1.9253,-1.9252,-1.9252,-1.9248,-1.9276,-1.9269,-1.9292,-1.9301,-1.9308,-1.9312,-1.9325,-1.9334,-1.9232,-1.9232,-1.9232,0,0,-1.9418,-1.9398,-1.9402,-1.9388,-1.9375,-1.9379,-1.9331,-1.9338,-1.934,-1.9289,-1.93,-1.9285,-1.9267,-1.9288,-1.9296,-1.9277,-1.9339,-1.9313,-1.9319,-1.9319,-1.933,-1.934,-1.9348,-1.9235,-1.9235,-1.9234,0,0,-1.9483,-1.9469,-1.9485,-1.9473,-1.9453,-1.943,-1.9435,-1.9407,-1.9394,-1.9405,-1.9367,-1.937,-1.9368,-1.9357,-1.9351,-1.9412,-1.9383,-1.9413,-1.9456,-1.947,-1.9478,-1.9485,-1.9506,-1.9514,-1.9417,-1.9417,-1.9417,0,-1.9529,-1.9533,-1.9498,-1.9506,-1.9501,-1.9455,-1.9472,-1.9462,-1.9443,-1.944,-1.9419,-1.9416,-1.9401,-1.9418,-1.9433,-1.943,-1.9433,-1.9415,-1.948,-1.9486,-1.9492,-1.9512,-1.952,-1.9421,-1.942,-1.942,-1.9419,0,-1.959,-1.9594,-1.961,-1.9592,-1.9589,-1.9602,-1.9568,-1.9569,-1.9546,-1.9525,-1.9537,-1.9517,-1.9508,-1.9511,-1.9488,-1.9525,-1.9514,-1.9487,-1.9449,-1.9506,-1.9524,-1.9531,-1.9426,-1.9424,-1.9423,-1.9422,0,0,-1.9694,-1.9656,-1.9663,-1.9654,-1.9629,-1.9631,-1.9643,-1.9634,-1.9636,-1.9624,-1.9632,-1.9632,-1.9607,-1.96,-1.9576,-1.9587,-1.9636,-1.9559,-1.9558,-1.9573,-1.9675,-1.9695,-1.9704,-1.9617,-1.9619,-1.962,-1.9676,0,-1.9753,-1.9769,-1.9738,-1.9761,-1.9764,-1.9721,-1.973,-1.9716,-1.9698,-1.9698,-1.9677,-1.9677,-1.9645,-1.964,-1.965,-1.9628,-1.9656,-1.9624,-1.9624,-1.9624,-1.9628,-1.9713,-1.9734,-1.9788,-1.9683,-1.9684,-1.9685,0,-1.9824,-1.9816,-1.984,-1.9813,-1.9813,-1.9822,-1.9812,-1.9813,-1.9796,-1.9781,-1.9774,-1.9745,-1.9754,-1.9719,-1.973,-1.9709,-1.9708,-1.9697,-1.9698,-1.9696,-1.9657,-1.9712,-1.9805,-1.9813,-1.9696,-1.9695,-1.9694,0,-1.9896,-1.9891,-1.9904,-1.9898,-1.9868,-1.9876,-1.9863,-1.9845,-1.9842,-1.9833,-1.9831,-1.9824,-1.982,-1.9815,-1.9784,-1.9762,-1.9799,-1.9762,-1.9787,-1.9788,-1.9796,-1.9795,-1.9888,-1.9797,-1.9797,-1.9797,-1.9797,0,-1.9965,-1.9981,-1.9936,-1.9945,-1.9961,-1.9925,-1.9943,-1.9926,-1.991,-1.9915,-1.9878,-1.9882,-1.9843,-1.9843,-1.982,-1.9833,-1.9831,-1.982,-1.9813,-1.9822,-1.9824,-1.9819,-1.9814,-1.9799,-1.9798,-1.9798,-1.9798,0,-2.0048,-2.0019,-2.003,-2.0001,-1.9994,-2.0007,-1.9982,-1.9989,-1.9968,-1.9974,-1.9973,-1.994,-1.9939,-1.9909,-1.9901,-1.9885,-1.9907,-1.9894,-1.9913,-1.9908,-1.9934,-1.9932,-2.0027,-2.0037,-1.9941,-1.9942,-1.9943,0,-2.0093,-2.0104,-2.0076,-2.0076,-2.0065,-2.0066,-2.0063,-2.0028,-2.0026,-2.0008,-2.0017,-2.0012,-2.0007,-2.0007,-1.9982,-1.9976,-1.9962,-1.9996,-1.9961,-1.997,-1.9961,-1.9961,-1.9961,-2.0003,-2.0004,-2.0005,-2.0006,0,-2.0175,-2.0161,-2.0157,-2.0149,-2.0146,-2.0138,-2.0127,-2.013,-2.0091,-2.0091,-2.0089,-2.0085,-2.0077,-2.0073,-2.0063,-2.005,-2.0022,-2.0017,-2.0023,-2.0032,-2.0041,-2.0035,-1.9932,-2.0015,-2.0014,-2.0013,-2.0013,-2.0013,-2.024,-2.0248,-2.0229,-2.0226,-2.0215,-2.0206,-2.021,-2.019,-2.0188,-2.0179,-2.0158,-2.016,-2.0143,-2.0126,-2.0116,-2.0116,-2.0099,-2.0107,-2.0109,-2.0111,-2.0115,-2.0043,-2.0114,-2.0114,-2.0114,-2.0113,-2.0113,0,-2.032,-2.0306,-2.0304,-2.029,-2.0288,-2.0262,-2.0249,-2.0249,-2.025,-2.0237,-2.0232,-2.023,-2.0226,-2.0202,-2.0195,-2.02,-2.0187,-2.0199,-2.0198,-2.0195,-2.0132,-2.0127,-2.021,-2.021,-2.021,-2.021,-2.021,-2.021,-2.0361,-2.0372,-2.0356,-2.0361,-2.0347,-2.0348,-2.0342,-2.0334,-2.0323,-2.0322,-2.0319,-2.0303,-2.0285,-2.0276,-2.0272,-2.0264,-2.0263,-2.028,-2.0269,-2.0209,-2.02,-2.0191,-2.0186,-2.028,-2.028,-2.0332,-2.0332,-2.0333]},{"header":{"parameterUnit":"m.s-1","parameterCategory":1,"la1":30.2991,"la2":30.254,"lo1":-89.0895,"lo2":-89.0444,"dy":0.0017,"dx":0.0017,"nx":28,"ny":28,"refTime":"2023-09-14T21:00:00:Z","depth":0,"parameterNumber":3,"parameterNumberName":"V-component_of_WINDS"},"data":[0,0,0,0,0,0,0,0,0,0,0,0,0,0,0,0,0,0,0,0,0,0,0,0,0,0,0,0,0,0,0,0,0,0,0,0,0,0,0,0,0,0,0,0,0,0,0,0,0,0,0,0,0,0,0,0,0,0,-1.0683,-1.0684,0,-1.0767,-1.0768,-1.0769,-1.0807,-1.0807,-1.0807,-1.0807,-1.0892,-1.0894,-1.0896,0,0,0,0,0,0,0,0,0,0,0,0,0,-1.0554,-1.0556,-1.0683,-1.0684,-1.0685,-1.0767,-1.0768,-1.0769,-1.0807,-1.0807,-1.0807,-1.0807,-1.0891,-1.0894,-1.0897,0,0,0,0,0,0,0,0,0,0,0,0,0,-1.0621,-1.0557,-1.0683,-1.0714,-1.0718,-1.0767,-1.0768,-1.077,-1.0807,-1.0807,-1.0807,-1.0807,-1.089,-1.0893,-1.0897,-1.0921,0,0,-1.0908,-1.0909,0,0,0,0,0,0,0,0,-1.0618,-1.0626,-1.0709,-1.0712,-1.0716,-1.0777,-1.0754,-1.082,-1.0807,-1.0773,-1.0807,-1.0807,-1.0853,-1.086,-1.0876,-1.0925,-1.0929,-1.0908,-1.091,-1.0912,-1.0913,0,0,0,0,0,0,0,-1.0613,-1.0623,-1.0717,-1.071,-1.0714,-1.0723,-1.0733,-1.0767,-1.0813,-1.0776,-1.0779,-1.0789,-1.0856,-1.0872,-1.0878,-1.093,-1.0908,-1.0911,-1.0913,-1.0915,-1.1002,-1.1003,0,0,0,0,0,0,-1.0603,-1.0619,-1.0714,-1.0719,-1.0666,-1.0726,-1.0736,-1.0757,-1.0813,-1.0821,-1.0789,-1.079,-1.0867,-1.0874,-1.0881,-1.0913,-1.0912,-1.0915,-1.0917,-1.1002,-1.1003,-1.1003,0,0,0,0,0,0,-1.06,-1.0611,-1.0711,-1.067,-1.0683,-1.0728,-1.0752,-1.0759,-1.0776,-1.0822,-1.083,-1.0798,-1.0867,-1.0876,-1.0911,-1.0917,-1.0916,-1.092,-1.1002,-1.1002,-1.1003,-1.0977,0,0,0,0,0,0,-1.0597,-1.061,-1.062,-1.067,-1.0685,-1.0739,-1.0752,-1.0761,-1.0782,-1.0785,-1.0833,-1.0841,-1.0867,-1.0905,-1.0914,-1.0922,-1.0922,-1.1002,-1.1002,-1.1003,-1.0978,-1.0976,-1.0976,0,0,0,0,0,-1.0592,-1.061,-1.0621,-1.0632,-1.0699,-1.0739,-1.0748,-1.0779,-1.0783,-1.0793,-1.0822,-1.0839,-1.0914,-1.0909,-1.0919,-1.0927,-1.1001,-1.1002,-1.1003,-1.0978,-1.0977,-1.0976,0,0,0,0,0,0,-1.056,-1.0617,-1.063,-1.0664,-1.0697,-1.0746,-1.076,-1.0777,-1.0809,-1.081,-1.0846,-1.0857,-1.0888,-1.0911,-1.0904,-1.0953,-1.0959,-1.0962,-1.0937,-1.0936,-1.0935,-1.0929,-1.0925,0,0,0,0,0,-1.0557,-1.0585,-1.0633,-1.0659,-1.0675,-1.0714,-1.0733,-1.0754,-1.0789,-1.0803,-1.0835,-1.0868,-1.0899,-1.0919,-1.095,-1.0981,-1.0992,-1.0991,-1.099,-1.0989,-1.0991,-1.1009,-1.1009,-1.1005,-1.1005,-1.1005,0,0,-1.0551,-1.0585,-1.0601,-1.0654,-1.0681,-1.071,-1.0726,-1.0755,-1.0777,-1.0807,-1.0842,-1.0866,-1.0906,-1.0938,-1.0954,-1.0958,-1.0995,-1.099,-1.0989,-1.0992,-1.1009,-1.101,-1.101,-1.1005,-1.1005,-1.1005,0,0,-1.0554,-1.0584,-1.0608,-1.0635,-1.0677,-1.0703,-1.0709,-1.0755,-1.0773,-1.0808,-1.0832,-1.0857,-1.091,-1.0937,-1.0958,-1.097,-1.0987,-1.0979,-1.0974,-1.0991,-1.0991,-1.0991,-1.0996,-1.0997,-1.0981,-1.0981,-1.0981,0,-1.0542,-1.0586,-1.0618,-1.0647,-1.0669,-1.0698,-1.0723,-1.0747,-1.0797,-1.0811,-1.0815,-1.0882,-1.091,-1.0949,-1.0952,-1.0968,-1.0975,-1.0974,-1.0988,-1.0989,-1.099,-1.0995,-1.0996,-1.098,-1.098,-1.098,-1.098,0,-1.0568,-1.0598,-1.0613,-1.066,-1.0684,-1.071,-1.0746,-1.0766,-1.0784,-1.0809,-1.0844,-1.0879,-1.0918,-1.0929,-1.0947,-1.097,-1.0972,-1.0981,-1.0988,-1.0989,-1.0994,-1.0996,-1.0978,-1.0978,-1.0979,-1.0979,0,0,-1.0555,-1.0619,-1.0624,-1.0646,-1.0693,-1.0717,-1.0744,-1.0782,-1.0798,-1.0831,-1.0855,-1.0898,-1.0907,-1.0931,-1.0952,-1.0967,-1.0974,-1.0975,-1.0976,-1.0973,-1.1001,-1.0994,-1.0996,-1.0985,-1.0985,-1.0986,-1.0998,0,-1.0565,-1.0616,-1.0645,-1.0684,-1.0712,-1.0739,-1.0763,-1.0794,-1.0818,-1.0845,-1.0871,-1.0902,-1.0912,-1.0926,-1.0941,-1.097,-1.098,-1.0969,-1.1007,-1.1008,-1.0997,-1.0998,-1.0991,-1.1001,-1.1,-1.1001,-1.1001,0,-1.0584,-1.0617,-1.0658,-1.0702,-1.0715,-1.0735,-1.0772,-1.0798,-1.0833,-1.085,-1.0875,-1.0896,-1.0926,-1.0929,-1.097,-1.0962,-1.0979,-1.0995,-1.0996,-1.1001,-1.1005,-1.1003,-1.1005,-1.1006,-1.1004,-1.1004,-1.1004,0,-1.0571,-1.0624,-1.0656,-1.0673,-1.0726,-1.0739,-1.0762,-1.0797,-1.0818,-1.085,-1.0864,-1.0898,-1.0917,-1.0943,-1.0973,-1.0973,-1.101,-1.1017,-1.1024,-1.1023,-1.1031,-1.1031,-1.1036,-1.1041,-1.1041,-1.1041,-1.1041,0,-1.0579,-1.0603,-1.065,-1.067,-1.0697,-1.073,-1.0756,-1.0781,-1.0812,-1.0836,-1.0862,-1.0884,-1.0922,-1.0948,-1.0971,-1.1001,-1.1009,-1.1023,-1.1029,-1.1021,-1.1019,-1.1033,-1.1033,-1.1042,-1.1042,-1.1042,-1.1042,0,-1.0569,-1.0601,-1.0638,-1.0684,-1.0696,-1.0714,-1.0753,-1.0773,-1.0798,-1.0828,-1.0837,-1.0876,-1.0908,-1.094,-1.0984,-1.1,-1.1029,-1.1037,-1.1017,-1.102,-1.1026,-1.1025,-1.1041,-1.1044,-1.1047,-1.1047,-1.1047,0,-1.0573,-1.0592,-1.064,-1.0658,-1.068,-1.0709,-1.073,-1.0763,-1.0784,-1.0826,-1.084,-1.0874,-1.0903,-1.0954,-1.0986,-1.1019,-1.1028,-1.1031,-1.1033,-1.1024,-1.1028,-1.1027,-1.1029,-1.103,-1.103,-1.103,-1.103,0,-1.0576,-1.0591,-1.0621,-1.0656,-1.068,-1.071,-1.074,-1.0753,-1.0792,-1.0814,-1.0847,-1.087,-1.0914,-1.0948,-1.0985,-1.1007,-1.1025,-1.1028,-1.1032,-1.1024,-1.1012,-1.1019,-1.1014,-1.1028,-1.1028,-1.1028,-1.1028,-1.1029,-1.0573,-1.0591,-1.0627,-1.066,-1.0686,-1.0713,-1.0734,-1.0761,-1.079,-1.0829,-1.0846,-1.088,-1.0914,-1.0966,-1.0987,-1.1014,-1.1019,-1.1024,-1.1025,-1.1026,-1.1024,-1.1007,-1.1021,-1.1021,-1.1021,-1.1021,-1.1021,0,-1.0577,-1.0602,-1.0631,-1.0673,-1.0698,-1.0712,-1.0746,-1.0766,-1.0795,-1.0826,-1.0854,-1.0892,-1.0925,-1.0959,-1.0993,-1.1008,-1.1017,-1.1016,-1.1015,-1.102,-1.1018,-1.1012,-1.1008,-1.1008,-1.1008,-1.1008,-1.1008,-1.1008,-1.0583,-1.0614,-1.0633,-1.0677,-1.0702,-1.0735,-1.0753,-1.0779,-1.0803,-1.0845,-1.0872,-1.0894,-1.0926,-1.0963,-1.0993,-1.1003,-1.1014,-1.1011,-1.1022,-1.102,-1.102,-1.1021,-1.1015,-1.1013,-1.1013,-1.1022,-1.1022,-1.1022]}]]